Location: Unspecified
(0.0000°N, 0.0000°E)
Time: 05:47:30
(UTC+00:00)

deb West Ford - Visible Passes

Search period start: 17 February 2026 00:00
Search period end: 27 February 2026 00:00
Orbit: 1937 x 5203 km, 86.5° (Epoch: 11 February)

Date Brightness Start Highest point End Pass type
(mag) Time Alt. Az. Time Alt. Az. Time Alt. Az.
17 Feb ? 18:24:00 10° S 18:34:55 83° E 18:50:58 10° N visible
18 Feb ? 04:06:38 10° NE 04:24:27 23° E 04:38:14 10° SE visible
18 Feb ? 19:05:54 10° SSW 19:16:35 58° W 19:32:07 10° NNW visible
19 Feb ? 04:42:40 10° NNE 05:06:39 41° E 05:23:39 10° SSE visible
19 Feb ? 19:49:15 10° SW 19:58:41 30° W 20:11:27 10° NNW visible
20 Feb ? 05:21:47 10° NNE 05:48:39 64° E 06:06:50 10° S visible
20 Feb ? 20:36:10 10° WSW 20:41:03 13° W 20:46:37 10° WNW visible
21 Feb ? 03:34:24 10° ENE 03:44:48 14° E 03:53:38 10° ESE visible
21 Feb ? 18:25:37 10° S 18:36:44 79° W 18:53:26 10° N visible
22 Feb ? 04:06:32 10° NE 04:27:05 30° E 04:42:10 10° SE visible
22 Feb ? 19:08:02 10° SSW 19:18:37 45° W 19:33:53 10° NNW visible
23 Feb ? 04:44:12 10° NNE 05:09:17 50° E 05:26:23 10° SSE visible
23 Feb ? 19:52:18 10° SW 20:00:52 23° W 20:12:03 10° NW visible
24 Feb ? 05:24:11 10° N 05:51:09 76° E 06:08:58 10° S visible
25 Feb ? 03:31:57 10° NE 03:47:24 20° E 03:59:29 10° SE visible
25 Feb ? 18:27:26 10° SSW 18:38:40 64° W 18:55:39 10° N visible
26 Feb ? 04:07:19 10° NNE 04:29:44 37° E 04:45:24 10° SSE visible
26 Feb ? 19:10:29 10° SSW 19:20:45 35° W 19:35:18 10° NNW visible
